TimeCST,TemperatureF,Dew PointF,Humidity,Sea Level PressureIn,VisibilityMPH,Wind Direction,Wind SpeedMPH,Gust SpeedMPH,PrecipitationIn,Events,Conditions,WindDirDegrees,DateUTC
12:53 AM,26.1,23.0,88,29.81,6.0,NW,6.9,-,0.00,,Overcast,310,2013-02-23 06:53:00
1:38 AM,25.0,23.0,92,29.78,8.0,NW,3.5,-,N/A,,Overcast,320,2013-02-23 07:38:00
1:53 AM,25.0,21.9,88,29.81,8.0,NW,4.6,-,N/A,,Overcast,310,2013-02-23 07:53:00
2:26 AM,25.0,21.9,88,29.77,9.0,NW,3.5,-,N/A,,Overcast,310,2013-02-23 08:26:00
2:50 AM,24.8,21.2,86,29.77,2.0,Calm,Calm,-,0.00,Snow,Light Snow,0,2013-02-23 08:50:00
2:53 AM,25.0,21.9,88,29.81,2.0,West,3.5,-,0.00,Snow,Light Snow,270,2013-02-23 08:53:00
3:09 AM,25.0,21.9,88,29.77,3.0,Calm,Calm,-,0.01,Snow,Light Snow,0,2013-02-23 09:09:00
3:53 AM,23.0,21.0,92,29.80,3.0,West,3.5,-,0.01,Snow,Light Snow,260,2013-02-23 09:53:00
3:59 AM,24.1,21.9,91,29.77,2.5,West,3.5,-,0.00,Snow,Light Snow,270,2013-02-23 09:59:00
4:14 AM,24.1,21.9,91,29.77,2.5,Calm,Calm,-,0.00,Snow,Light Snow,0,2013-02-23 10:14:00
4:30 AM,24.1,21.0,88,29.77,3.0,Calm,Calm,-,0.00,Snow,Light Snow,0,2013-02-23 10:30:00
4:39 AM,24.1,21.9,91,29.77,3.0,Calm,Calm,-,0.00,Snow,Light Snow,0,2013-02-23 10:39:00
4:48 AM,24.8,21.2,86,29.77,4.0,Calm,Calm,-,0.00,Snow,Light Snow,0,2013-02-23 10:48:00
4:53 AM,23.0,21.0,92,29.81,4.0,Calm,Calm,-,0.00,Snow,Light Snow,0,2013-02-23 10:53:00
5:17 AM,25.0,23.0,92,29.77,4.0,SW,3.5,-,0.00,Snow,Light Snow,230,2013-02-23 11:17:00
5:53 AM,25.0,23.0,92,29.81,4.0,SW,4.6,-,0.00,Snow,Light Snow,230,2013-02-23 11:53:00
6:22 AM,26.1,23.0,88,29.78,4.0,SW,6.9,-,0.00,Snow,Light Snow,230,2013-02-23 12:22:00
6:53 AM,26.1,21.9,84,29.82,2.5,WSW,9.2,-,0.00,Snow,Light Snow,240,2013-02-23 12:53:00
7:53 AM,26.1,23.0,88,29.83,2.5,WSW,8.1,-,0.01,Snow,Light Snow,250,2013-02-23 13:53:00
8:13 AM,26.1,23.0,88,29.79,2.5,West,8.1,-,0.00,Snow,Light Snow,260,2013-02-23 14:13:00
8:40 AM,27.0,21.9,81,29.80,2.5,West,9.2,-,0.00,Snow,Light Snow,260,2013-02-23 14:40:00
8:53 AM,27.0,21.9,81,29.83,2.5,West,11.5,-,0.00,Snow,Light Snow,270,2013-02-23 14:53:00
9:08 AM,27.0,21.0,78,29.80,2.5,West,11.5,-,0.00,Snow,Light Snow,270,2013-02-23 15:08:00
9:53 AM,27.0,21.9,81,29.83,4.0,West,12.7,-,0.00,Snow,Light Snow,270,2013-02-23 15:53:00
10:53 AM,28.0,21.0,75,29.83,10.0,West,13.8,-,0.00,,Overcast,270,2013-02-23 16:53:00
11:10 AM,28.9,21.0,72,29.80,10.0,West,15.0,-,N/A,,Overcast,280,2013-02-23 17:10:00
11:53 AM,28.9,21.0,72,29.82,10.0,West,13.8,-,N/A,,Overcast,260,2013-02-23 17:53:00
12:53 PM,30.0,21.0,69,29.82,10.0,West,12.7,-,N/A,,Overcast,270,2013-02-23 18:53:00
1:53 PM,30.9,21.0,67,29.82,10.0,West,10.4,-,N/A,,Overcast,270,2013-02-23 19:53:00
2:53 PM,30.0,21.0,69,29.82,10.0,WSW,8.1,-,N/A,,Overcast,240,2013-02-23 20:53:00
3:16 PM,30.0,19.9,66,29.79,10.0,WSW,12.7,-,N/A,,Overcast,240,2013-02-23 21:16:00
3:53 PM,30.0,19.9,66,29.83,10.0,WSW,12.7,-,N/A,,Overcast,250,2013-02-23 21:53:00
4:53 PM,28.9,19.9,69,29.84,10.0,WSW,8.1,-,N/A,,Overcast,240,2013-02-23 22:53:00
5:53 PM,28.9,19.9,69,29.85,10.0,WSW,10.4,-,N/A,,Overcast,250,2013-02-23 23:53:00
6:53 PM,28.0,19.9,72,29.86,10.0,West,8.1,-,N/A,,Overcast,260,2013-02-24 00:53:00
7:53 PM,28.0,19.9,72,29.88,10.0,WSW,6.9,-,N/A,,Overcast,240,2013-02-24 01:53:00
8:53 PM,28.0,19.9,72,29.88,10.0,WSW,10.4,-,N/A,,Overcast,250,2013-02-24 02:53:00
9:53 PM,28.0,19.9,72,29.89,10.0,West,10.4,-,N/A,,Overcast,260,2013-02-24 03:53:00
10:53 PM,27.0,21.0,78,29.89,6.0,West,12.7,-,0.00,,Haze,270,2013-02-24 04:53:00
11:53 PM,27.0,19.9,75,29.90,8.0,West,10.4,-,N/A,,Overcast,280,2013-02-24 05:53:00